Weather History for KFWA - January, 2014

Change the Weather History Date:

Thursday, January 16, 2014

  Actual Average Record
Temperature  
Mean Temperature 24 °F 25 °F  
Max Temperature 30 °F 32 °F 56 °F (1949)
Min Temperature 17 °F 17 °F -19 °F (1972)
Degree Days  
Heating Degree Days 41 40  
Month to date heating degree days 707 639  
Since 1 July heating degree days 3163 2967  
Cooling Degree Days 0 0  
Month to date cooling degree days 0 0  
Year to date cooling degree days 0 0  
Moisture  
Dew Point 20 °F    
Average Humidity 80    
Maximum Humidity 92    
Minimum Humidity 67    
Precipitation  
Precipitation 0.14 in 0.07 in 1.08 in (1952)
Month to date precipitation 2.00 1.24  
Year to date precipitation 2.00 1.24  
Snow  
Snow 2.40 in 0.40 in 3.60 in (1994)
Month to date snowfall 19.9 5.1  
Since 1 July snowfall 30.8 15.7  
Snow Depth T in    
Sea Level Pressure  
Sea Level Pressure 29.74 in    
Wind  
Wind Speed 17 mph (SSW)    
Max Wind Speed 24 mph    
Max Gust Speed 30 mph    
Visibility 5 miles    
Events Snow    
T = Trace of Precipitation, MM = Missing Value Source: NWS Daily Summary

Daily Weather History Graph

Daily Weather History Graph

Search for Another Location

Airport or City:

Trip Planner

Search our weather history database for the weather conditions in past years. The results will help you decide how hot, cold, wet, or windy it might be!

Date:

Astronomy

Jan. 16, 2014 Rise Set
Actual Time 8:02 AM EST 5:38 PM EST
Civil Twilight 7:32 AM EST 6:08 PM EST
Nautical Twilight 6:58 AM EST 6:42 PM EST
Astronomical Twilight 6:26 AM EST 7:15 PM EST
Moon 6:30 PM EST (1/16) 7:55 AM EST (1/16)
Length of Visible Light 10h 36m
Length of Day
9h 35m
Full, 100% of the Moon is Illuminated
Jan 16
Full
Jan 24
Last Quarter
Jan 30
New
Feb 6
First Quarter
Feb 14
Full

Hourly Weather History & Observations

Time (EST) Temp. Windchill Dew Point Humidity Pressure Visibility Wind Dir Wind Speed Gust Speed Precip Events Conditions
12:54 AM 19.0 °F 4.5 °F 12.0 °F 74% 29.99 in 10.0 mi SSW 16.1 mph - 0.00 in   Overcast
1:54 AM 19.0 °F 4.5 °F 10.9 °F 71% 29.99 in 10.0 mi SSW 16.1 mph 24.2 mph N/A   Overcast
2:54 AM 18.0 °F 3.6 °F 10.9 °F 74% 29.99 in 10.0 mi SSW 15.0 mph - N/A   Mostly Cloudy
3:54 AM 17.1 °F 3.6 °F 10.9 °F 77% 29.96 in 10.0 mi South 12.7 mph - N/A   Scattered Clouds
4:54 AM 19.0 °F 4.5 °F 12.9 °F 77% 29.90 in 10.0 mi South 16.1 mph - N/A   Overcast
5:54 AM 19.9 °F 6.7 °F 12.9 °F 74% 29.87 in 10.0 mi South 13.8 mph - N/A   Overcast
6:54 AM 21.0 °F 7.6 °F 14.0 °F 74% 29.85 in 10.0 mi South 15.0 mph - N/A   Overcast
7:54 AM 21.9 °F 8.2 °F 14.0 °F 72% 29.82 in 9.0 mi South 16.1 mph 25.3 mph 0.00 in Snow Light Snow
8:35 AM 23.0 °F 9.2 °F 15.8 °F 74% 29.78 in 2.0 mi South 17.3 mph - 0.00 in Snow Light Snow
8:40 AM 23.0 °F 9.2 °F 15.8 °F 74% 29.78 in 1.2 mi South 17.3 mph 25.3 mph 0.00 in Snow Light Snow
8:54 AM 21.9 °F 7.8 °F 17.1 °F 82% 29.82 in 1.2 mi South 17.3 mph - 0.00 in Snow Light Snow
9:18 AM 21.2 °F 7.3 °F 19.4 °F 93% 29.78 in 0.8 mi South 16.1 mph - 0.01 in Snow Light Snow
9:41 AM 23.0 °F 9.6 °F 19.4 °F 86% 29.77 in 1.0 mi South 16.1 mph - 0.02 in Snow Light Snow
9:54 AM 23.0 °F 9.6 °F 19.9 °F 88% 29.81 in 1.0 mi South 16.1 mph 24.2 mph 0.02 in Snow Light Snow
10:54 AM 24.1 °F 9.8 °F 19.9 °F 84% 29.79 in 1.0 mi South 19.6 mph - 0.02 in Snow Light Snow
11:27 AM 24.8 °F 11.1 °F 21.2 °F 86% 29.73 in 0.8 mi South 18.4 mph - 0.02 in Snow Light Snow
11:54 AM 24.1 °F 9.8 °F 21.0 °F 88% 29.75 in 0.8 mi South 19.6 mph - 0.03 in Snow Light Snow
12:41 PM 24.8 °F 11.9 °F 21.2 °F 86% 29.69 in 0.8 mi South 16.1 mph 25.3 mph 0.02 in Snow Light Snow
12:54 PM 25.0 °F 10.9 °F 21.9 °F 88% 29.72 in 0.8 mi SSW 19.6 mph - 0.02 in Snow Light Snow
1:11 PM 24.8 °F 11.1 °F 21.2 °F 86% 29.67 in 1.2 mi South 18.4 mph 27.6 mph 0.01 in Snow Light Snow
1:15 PM 24.8 °F 12.4 °F 21.2 °F 86% 29.67 in 2.0 mi South 15.0 mph 27.6 mph 0.01 in Snow Light Snow
1:43 PM 26.6 °F 13.8 °F 21.2 °F 80% 29.65 in 1.5 mi SSW 17.3 mph 29.9 mph 0.01 in Snow Light Snow
1:54 PM 26.1 °F 13.1 °F 21.9 °F 84% 29.68 in 0.8 mi South 17.3 mph - 0.01 in Snow Light Snow
2:54 PM 25.0 °F 11.7 °F 21.9 °F 88% 29.67 in 0.8 mi South 17.3 mph - 0.02 in Snow Light Snow
3:12 PM 26.6 °F 14.7 °F 23.0 °F 86% 29.63 in 1.5 mi South 15.0 mph - 0.00 in Snow Light Snow
3:20 PM 26.6 °F 15.2 °F 23.0 °F 86% 29.63 in 4.0 mi South 13.8 mph - 0.01 in Snow Light Snow
3:54 PM 26.1 °F 13.1 °F 21.9 °F 84% 29.68 in 10.0 mi SSW 17.3 mph - 0.01 in   Overcast
4:34 PM 26.6 °F 14.3 °F 21.2 °F 80% 29.64 in 8.0 mi SSW 16.1 mph - 0.00 in Snow Light Snow
4:54 PM 27.0 °F 13.9 °F 21.9 °F 81% 29.68 in 4.0 mi SSW 18.4 mph - 0.00 in Snow Light Snow
5:54 PM 27.0 °F 14.3 °F 21.9 °F 81% 29.69 in 8.0 mi SSW 17.3 mph 23.0 mph 0.00 in Snow Light Snow
6:54 PM 28.0 °F 15.7 °F 23.0 °F 81% 29.68 in 6.0 mi SSW 17.3 mph - 0.00 in Snow Light Snow
7:26 PM 28.4 °F 16.6 °F 23.0 °F 80% 29.65 in 9.0 mi SSW 16.1 mph - 0.00 in Snow Light Snow
7:48 PM 28.4 °F 16.6 °F 23.0 °F 80% 29.65 in 2.0 mi SSW 16.1 mph - 0.00 in Snow Light Snow
7:54 PM 28.0 °F 16.1 °F 23.0 °F 81% 29.68 in 1.8 mi SSW 16.1 mph - 0.00 in Snow Light Snow
8:12 PM 28.4 °F 17.0 °F 24.8 °F 86% 29.65 in 2.0 mi SSW 15.0 mph - 0.00 in Snow Light Snow
8:19 PM 28.4 °F 16.2 °F 24.8 °F 86% 29.65 in 4.0 mi SSW 17.3 mph 24.2 mph 0.00 in Snow Light Snow
8:25 PM 28.4 °F 15.1 °F 24.8 °F 86% 29.65 in 2.0 mi SSW 20.7 mph 27.6 mph 0.00 in Snow Light Snow
8:35 PM 28.4 °F 15.8 °F 24.8 °F 86% 29.65 in 1.8 mi SSW 18.4 mph 27.6 mph 0.00 in Snow Light Snow
8:54 PM 28.0 °F 15.3 °F 25.0 °F 88% 29.68 in 1.2 mi SSW 18.4 mph - 0.01 in Snow Light Snow
9:04 PM 28.4 °F 15.8 °F 24.8 °F 86% 29.65 in 2.5 mi SSW 18.4 mph - 0.00 in Snow Light Snow
9:11 PM 28.4 °F 15.4 °F 24.8 °F 86% 29.65 in 4.0 mi SSW 19.6 mph - 0.00 in Snow Light Snow
9:38 PM 28.4 °F 15.8 °F 26.6 °F 93% 29.66 in 2.0 mi SW 18.4 mph - 0.00 in Snow Light Snow
9:47 PM 28.4 °F 15.4 °F 26.6 °F 93% 29.66 in 5.0 mi SW 19.6 mph - 0.00 in Snow Light Snow
9:54 PM 28.9 °F 16.5 °F 26.1 °F 89% 29.69 in 8.0 mi SW 18.4 mph - 0.00 in Snow Light Snow
10:54 PM 30.0 °F 18.7 °F 24.1 °F 79% 29.70 in 10.0 mi WSW 16.1 mph - 0.00 in   Overcast
11:16 PM 28.4 °F 17.0 °F 23.0 °F 80% 29.67 in 10.0 mi WSW 15.0 mph - N/A   Overcast
11:54 PM 27.0 °F 14.7 °F 17.1 °F 66% 29.71 in 10.0 mi WSW 16.1 mph - N/A   Scattered Clouds